Live-Position
3D-Globus wird geladen...
Über OneWeb SL0588
Group: 3 satellites
Beschreibung wird geladen...
Nächste Überflüge
Passes for default location (London). Set your location on the main map for personalized predictions.
Höhenverlauf
Loading altitude history...
No altitude history available
Zweizeiliger Elementsatz
1 55153U 23004P 26127.13491757 -.00000064 00000-0 -19433-3 0 9998
2 55153 87.9177 343.6411 0001496 98.2865 261.8437 13.18685508164287
Epoch: 7. Mai 2026 •
Age: 14 hours
Aktueller Status
Höhe 1196.7 km
Geschwindigkeit 7.25 km/s
Subsatellitenpunkt -17.47°S,
43.89°E
Startdatum 10. Jan. 2023
Alter 3.3 years
Typ internet
Startgruppe
Unknown Vehicle •
OneWeb Launch 16 •
40 satellites
OneWeb SL0532
55140
OneWeb SL0533 55141
OneWeb SL0541 55142
OneWeb SL0543 55143
OneWeb SL0544 55144
OneWeb SL0560 55145
OneWeb SL0565 55146
OneWeb SL0567 55147
OneWeb SL0569 55148
OneWeb SL0570 55149
OneWeb SL0571 55150
OneWeb SL0572 55151
OneWeb SL0573 55152
OneWeb SL0598 55154
OneWeb SL0599 55155
OneWeb SL0614 55156
OneWeb SL0616 55157
OneWeb SL0617 55158
OneWeb SL0618 55159
OneWeb SL0619 55160
...and 19 more
Technische Details
Klassifizierung Payload
Masse 148.00 kg
Trockenmasse 140.00 kg
Gesamtmasse 148.00 kg
Länge 1.30 m
Durchmesser 1.00 m
Spannweite 5.00 m
Form Trapezoid+2 pan
Hersteller ONEWUS
Bus-Typ ARROW
Phasenstatus In Orbit
Besitzer/Staat ONEWEBN/UK
Most Searched
Loading...